TimeEDT,TemperatureF,Dew PointF,Humidity,Sea Level PressureIn,VisibilityMPH,Wind Direction,Wind SpeedMPH,Gust SpeedMPH,PrecipitationIn,Events,Conditions,WindDirDegrees,DateUTC
12:15 AM,39.2,28.4,65,30.56,10.0,ENE,5.8,-,N/A,,Mostly Cloudy,60,2013-04-23 04:15:00
12:52 AM,39.0,28.9,67,30.55,10.0,ENE,5.8,-,N/A,,Mostly Cloudy,60,2013-04-23 04:52:00
1:35 AM,39.2,28.4,65,30.52,10.0,NE,8.1,-,N/A,,Scattered Clouds,50,2013-04-23 05:35:00
1:52 AM,39.0,28.9,67,30.52,10.0,NE,6.9,-,N/A,,Clear,50,2013-04-23 05:52:00
2:52 AM,37.9,30.0,73,30.49,10.0,NNE,5.8,-,N/A,,Partly Cloudy,30,2013-04-23 06:52:00
3:27 AM,39.2,30.2,70,30.47,10.0,NNE,8.1,-,N/A,,Overcast,30,2013-04-23 07:27:00
4:52 AM,39.9,30.9,70,30.46,10.0,NE,8.1,-,N/A,,Overcast,40,2013-04-23 08:52:00
5:52 AM,39.9,32.0,73,30.45,10.0,NNE,8.1,-,N/A,,Overcast,30,2013-04-23 09:52:00
6:52 AM,39.9,33.1,77,30.44,10.0,NE,13.8,18.4,N/A,,Overcast,50,2013-04-23 10:52:00
7:16 AM,39.2,33.8,81,30.44,10.0,NE,10.4,-,N/A,,Overcast,40,2013-04-23 11:16:00
7:52 AM,39.9,35.1,83,30.44,10.0,NE,10.4,-,N/A,,Overcast,40,2013-04-23 11:52:00
8:52 AM,39.9,36.0,86,30.42,10.0,NE,10.4,-,N/A,,Overcast,50,2013-04-23 12:52:00
9:52 AM,41.0,36.0,82,30.41,10.0,NE,11.5,17.3,N/A,,Overcast,50,2013-04-23 13:52:00
10:52 AM,42.1,37.0,82,30.40,10.0,NE,11.5,18.4,N/A,,Overcast,50,2013-04-23 14:52:00
11:07 AM,42.8,37.4,81,30.39,10.0,NE,12.7,18.4,N/A,,Overcast,50,2013-04-23 15:07:00
11:52 AM,42.1,37.9,85,30.38,10.0,NE,10.4,-,0.00,,Overcast,40,2013-04-23 15:52:00
12:30 PM,42.8,39.2,87,30.36,10.0,NE,11.5,20.7,N/A,,Overcast,40,2013-04-23 16:30:00
12:52 PM,44.1,39.0,82,30.35,10.0,NE,10.4,-,N/A,,Overcast,40,2013-04-23 16:52:00
1:52 PM,44.1,39.0,82,30.32,10.0,NNE,18.4,24.2,N/A,,Overcast,30,2013-04-23 17:52:00
2:52 PM,44.1,39.9,85,30.28,10.0,NNE,10.4,20.7,N/A,,Overcast,20,2013-04-23 18:52:00
3:52 PM,44.1,39.0,82,30.27,10.0,NNE,12.7,19.6,N/A,,Overcast,20,2013-04-23 19:52:00
4:33 PM,42.8,39.2,87,30.26,10.0,NNE,12.7,-,N/A,,Overcast,20,2013-04-23 20:33:00
4:52 PM,43.0,39.0,86,30.26,10.0,North,13.8,-,N/A,,Overcast,10,2013-04-23 20:52:00
5:52 PM,43.0,39.0,86,30.24,10.0,North,11.5,-,N/A,,Overcast,10,2013-04-23 21:52:00
6:52 PM,43.0,39.0,86,30.22,10.0,NNE,12.7,-,N/A,,Overcast,20,2013-04-23 22:52:00
7:52 PM,43.0,39.0,86,30.18,10.0,NNE,11.5,20.7,N/A,,Overcast,30,2013-04-23 23:52:00
8:52 PM,43.0,39.0,86,30.17,10.0,North,11.5,-,N/A,,Overcast,10,2013-04-24 00:52:00
9:52 PM,43.0,39.0,86,30.17,10.0,NNE,12.7,-,N/A,,Overcast,20,2013-04-24 01:52:00
10:52 PM,43.0,39.0,86,30.13,10.0,NNE,13.8,20.7,N/A,,Overcast,20,2013-04-24 02:52:00
11:52 PM,43.0,39.0,86,30.09,10.0,NNE,15.0,20.7,N/A,,Overcast,20,2013-04-24 03:52:00